User: anonymous   Login
Location: Cactus School
(34.5700°N, 118.0931°W)
Time: 09:15:53
(UTC-08:00)
Language:

Transit 4A - Orbit

View from above orbital plane
View from above orbital plane
View from above satellite
View from above satellite

Ground track
Ground track

The orbit data is extracted from the following two-line orbital elements,

1   116U 61015A   19325.64443956 -.00000084 +00000-0 -53994-5 0  9991
2   116 066.8094 358.6605 0073451 160.1642 200.2320 13.91761623962764
Epoch (UTC): 21 November 2019 15:27:59
Eccentricity: 0.0073451
inclination: 66.8094°
perigee height: 869 km
apogee height: 976 km
right ascension of ascending node: 358.6605°
argument of perigee: 160.1642°
revolutions per day: 13.91761623
mean anomaly at epoch: 200.2320°
orbit number at epoch: 96276

The dashed part of the orbit path shows where the satellite is in the earth's shadow,  

DLR